Regional Weather Roundup
Issued by NWS San Diego, CA

Home | Current Version | Previous Version | Text Only | Print | Product List | Glossary On
Versions: 1 2 3 4 5 6 7 8 9 10 11 12 13 14 15 16 17 18 19 20 21 22 23 24 25 26 27 28 29 30 31 32 33 34 35 36 37 38 39 40 41 42 43 44 45 46 47 48 49 50
000
ASUS46 KSGX 271910
RWRSGX

SAN DIEGO HOURLY WEATHER ROUNDUP
NATIONAL WEATHER SERVICE SAN DIEGO CA
1100 AM PST THU NOV 27 2014

NOTE: "FAIR" INDICATES FEW OR NO CLOUDS BELOW 12,000 FEET WITH NO
SIGNIFICANT WEATHER AND/OR OBSTRUCTIONS TO VISIBILITY.

CAZ042-043-060-061-PZZ750-775-272000-

GREATER SAN DIEGO AREA

CITY           SKY/WX    TMP DP  RH WIND       PRES   REMARKS
LINDBERGH FLD  MOSUNNY   83  28  13 CALM      30.08F
POINT LOMA       N/A     87  21   9 NW6         N/A
NATIONAL CITY    N/A     82  36  19 W1        30.07F
CHULA VISTA      N/A     84  31  15 E2        30.00F
IMPERIAL BEACH SUNNY     80  36  20 SW7       30.07F
BROWN FIELD    SUNNY     87  16   7 NW6       30.08F
MIRAMAR MCAS   SUNNY     86  13   6 NW5       30.08F
MONTGOMERY FLD SUNNY     87  20   8 VRB3      30.08F

$$

NORTH SAN DIEGO COUNTY

CITY           SKY/WX    TMP DP  RH WIND       PRES   REMARKS
CAMP PENDLETON SUNNY     89  12   5 CALM      30.06F
OCEANSIDE AP   SUNNY     85  27  12 SW3       30.05F
OCEANSIDE HBR    N/A     70  54  56 NW9       30.09F
VISTA            N/A     87  29  12 CALM      30.06
CARLSBAD       SUNNY     84  21  10 CALM      30.07F
DEL MAR          N/A     82  30  15 CALM      30.09F
LA JOLLA SCRIP   N/A     80  29  15 CALM      30.05F
FALLBROOK        N/A     87  10   5 CALM      30.09F
ESCONDIDO        N/A     86  30  13 CALM      30.08F
SAN MARCOS       N/A     84  24  11 W2        30.06F
POWAY            N/A     83  29  14 CALM      30.10F

$$

EAST SAN DIEGO COUNTY

CITY           SKY/WX    TMP DP  RH WIND       PRES   REMARKS
RAMONA         SUNNY     86   5   4 CALM      30.11F
SANTEE LAKES     N/A     79  35  20 CALM      30.08F
LA MESA          N/A     85  32  15 CALM      30.02F
JAMUL            N/A     84  27  12 NW1       30.07F
DESCANSO N       N/A     82   8   6 CALM      29.98F
MT. LAGUNA OBS   N/A     67   4   8 NE2       29.88F
CAMPO            N/A     80  15   8 E22       30.14F

$$

ORANGE COUNTY AND THE LOS ANGELES BASIN

CITY           SKY/WX    TMP DP  RH WIND       PRES   REMARKS
JOHN WAYNE AP  MOSUNNY   82  27  13 CALM      30.08F
LAKE FOREST FR   N/A     83  21  10 CALM      29.97F
SANTA ANA        N/A     83  45  25 CALM      30.03F
HUNTINGTON BCH   N/A     80  54  39 SW2       30.10F
LOS ALAMITOS   FAIR      80  36  20 VRB1      30.07F
FULLERTON      SUNNY     85  29  13 CALM      30.07F
LONG BEACH     SUNNY     80  30  16 CALM      30.08F
L.A. AP        PTSUNNY   82  20  10 VRB3      30.09F
L.A. DOWNTOWN  SUNNY     82  24  12 CALM      30.07F

$$

THE INLAND EMPIRE

CITY           SKY/WX    TMP DP  RH WIND       PRES   REMARKS
CORONA         SUNNY     80  32  17 CALM      30.11F
CHINO          MOSUNNY   79  30  16 CALM      30.12F
ONTARIO        PTSUNNY   81  20  10 SE5       30.12F
SAN BERNARDINO SUNNY     79  21  11 CALM      30.13F
RIVERSIDE AP   MOSUNNY   81  30  15 CALM      30.11F
RIV CYN CREST    N/A     83  44  25 CALM        N/A
MORENO VALLEY    N/A     84  23  11 SE6       29.32F
MARCH ARB      PTSUNNY   80  19  10 E2        30.14F
HORSETHIEF CYN   N/A     80  14   8 CALM      30.13F
PERRIS           N/A     80  30  16 CALM      30.17F
MENIFEE          N/A     78  36  21 CALM      30.21F
HEMET EAST       N/A     79  16   9 CALM      30.10F
FRENCH VALLEY  FAIR      81  19  10 N5        30.13F
TEMECULA         N/A     72  33  24 CALM      30.09F

$$

SAN BERNARDINO AND RIVERSIDE COUNTY MOUNTAINS

CITY           SKY/WX    TMP DP  RH WIND       PRES   REMARKS
BIG BEAR AP    SUNNY     66   3   8 W7        30.40F
ANGELUS OAKS     N/A     69  23  17 CALM      30.11F
PINE COVE        N/A     70   6   8 W2        30.14F

$$

SOUTHERN DESERT INCLUDING THE COACHELLA VALLEY

CITY           SKY/WX    TMP DP  RH WIND       PRES   REMARKS
PALM SPRINGS   SUNNY     78  18  10 CALM      30.16F
THOUSAND PALMS   N/A     77  29  17 SW1       30.11F
PALM DESERT      N/A     79  32  18 CALM        N/A
THERMAL        SUNNY     77  31  18 NE5       30.13F
BLYTHE         SUNNY     71  17  12 CALM      30.18F
IMPERIAL AP    SUNNY     75  29  18 NW3       30.14F
EL CENTRO NAS  SUNNY     76  24  14 VRB3      30.14F
YUMA AZ        MOSUNNY   78  24  13 NE12      30.13F
MEXICALI       SUNNY     75  21  13 NW6       30.15

$$

UPPER DESERT

CITY           SKY/WX    TMP DP  RH WIND       PRES   REMARKS
VICTORVILLE AP MOSUNNY   63  14  15 CALM      30.26F
HESPERIA         N/A     64  25  23 CALM      30.38F
APPLE VALLEY     N/A     67  15  13 CALM      30.27F
PALMDALE       SUNNY     61  16  17 N6        30.27F
LANCASTER      SUNNY     60  15  17 CALM      30.27F
EDWARDS AFB    MOSUNNY   55  11  17 E3        30.25F
DAGGETT        SUNNY     63  10  12 CALM      30.25F
29 PALMS N     SUNNY     68  17  14 CALM      30.29F
NEEDLES        SUNNY     71  21  15 N6        30.21F

$$

REGIONAL REPORTS

CITY           SKY/WX    TMP DP  RH WIND       PRES   REMARKS
SANTA BARBARA  SUNNY     78  43  28 SW6       30.08F
SANDBERG       SUNNY     67  15  13 NE10      30.31F
MT. WILSON       N/A    N/A N/A N/A MISG        N/A
LAS VEGAS NV   PTSUNNY   63  20  19 SW3       30.24F
PHOENIX AZ     MOSUNNY   75  27  17 CALM      30.16F
TIJUANA        SUNNY     86  14   7 CALM      30.10F
ENSENADA NW      N/A     76  32  20 W12       30.04F

$$

OFFSHORE ISLANDS

CITY           SKY/WX    TMP DP  RH WIND       PRES   REMARKS
CATALINA ARPT  SUNNY    N/A N/A N/A W7        30.16F
SAN NICOLAS IS SUNNY    N/A N/A N/A N8        30.10F

$$

MARINE AND OFFSHORE BUOY REPORTS

STATION/POSITION SKY/WX   TEMP    WIND        PRES    SWELL
                          AIR SEA DIR/SP/G            HT/PER/DIR
                          (F)     (DEG/KT/KT) (MB)    (FT/S/D)
TANNER BANKS               65 65  320/ 10/ 12 1018.9F   3/310/12
S CLEMENTE BASIN           67 67  330/  4/  6 1018.5F   2/240/14
SAN NICOLAS IS.               63                N/A     2/300/11
SO. S. ROSA ISLA           63 63  320/  8/ 10 1018.8F   2/11
W. S. BARBARA CH           64 63  320/  6/  8 1018.7F   3/270/12
M. S. BARBARA CH           65 65   60/  2/  2 1019.8S
S. MONICA BASIN            68 66   60/  2/  2 1019.2F   2/260/14
S PEDRO CHANNEL               66                N/A     2/270/13
DANA POINT                    67                N/A     2/260/13
CMP PENDLETON NS              66                N/A     2/230/13
OCEANSIDE OFFSHR              66                N/A     2/210/14
TORREY PINES OTR              67                N/A     2/250/12
LA JOLLA 1                 80 65     CALM     1018.3F
MISSION BAY BUOY              66                N/A     2/260/13
SAN DIEGO BAY                 66              1018.7F
POINT LOMA SOUTH              67                N/A     2/270/13

$$




USA.gov is the U.S. government's official web portal to all federal, state and local government web resources and services.